MSC Vega — D5BE4 — position and weather

sailwx.info

Track history (hours):
 
Tides and Currents Weather Stations Pressure Air Temp Water Temp Dewpoint Dewpoint Depression Visibility Wind Speed Wind Dir Waves Ship Positions

MSC Vega

Last reported at 2014-Jul-26 16:32 UTC. Time now 2014-Jul-26 17:13 UTC.
Position N 22°29' E 113°52'.

Length 366 m; draft 13.5 m.

Type: Ship (hazmat cat A). MMSI: 636015506.

Date/timePositionNaut miles runAvg speedWind from/ knotsBaromVisibWave heightAir tempDewpointWater temp
2014-Jul-26 16:32N 22°29' E 113°52'0 0.0
2014-Jul-26 07:07N 22°29' E 113°52'0 0.0
2014-Jul-26 05:07N 22°29' E 113°52'1 0.7
2014-Jul-26 03:33N 22°28' E 113°52'  
2014-Jul-20 13:32N 01°16' E 104°09'1818.2
2014-Jul-20 12:33N 01°12' E 103°52'8 8.2
2014-Jul-20 11:33N 01°16' E 103°45'0 0.3
2014-Jul-20 10:32N 01°17' E 103°45'0 0.0
2014-Jul-20 08:23N 01°17' E 103°45'0 0.0
2014-Jul-20 07:32N 01°17' E 103°45'0 0.0
2014-Jul-20 06:32N 01°17' E 103°45'0 0.0
2014-Jul-20 05:32N 01°17' E 103°45'0 0.0
2014-Jul-20 04:26N 01°17' E 103°45'0 0.0
2014-Jul-20 03:05N 01°17' E 103°45'0 0.0
2014-Jul-20 01:05N 01°17' E 103°45'0 0.0
2014-Jul-20 00:26N 01°17' E 103°45'0 0.0
2014-Jul-19 23:29N 01°17' E 103°45'0 0.0
2014-Jul-19 21:26N 01°17' E 103°45'0 0.0
2014-Jul-19 18:32N 01°17' E 103°45'0 0.0
2014-Jul-19 12:26N 01°17' E 103°45'0 0.0
2014-Jul-19 11:05N 01°17' E 103°45'0 0.0
2014-Jul-19 10:29N 01°17' E 103°45'0 0.0
2014-Jul-19 09:23N 01°17' E 103°45'0 0.0
2014-Jul-19 08:14N 01°17' E 103°45'0 0.0
2014-Jul-19 07:26N 01°17' E 103°45'0 0.0
2014-Jul-19 06:11N 01°17' E 103°45'0 0.0
2014-Jul-19 03:05N 01°17' E 103°45'0 0.1
2014-Jul-19 02:23N 01°17' E 103°45'0 0.1
2014-Jul-19 01:33N 01°17' E 103°45'2 1.7
2014-Jul-19 00:33N 01°15' E 103°45'3 3.1
2014-Jul-18 23:32N 01°14' E 103°42'8 6.2
2014-Jul-18 22:13N 01°11' E 103°34'  
Track history (hours):
 
Tides and Currents Weather Stations Pressure Air Temp Water Temp Dewpoint Dewpoint Depression Visibility Wind Speed Wind Dir Waves Ship Positions

MSC Vega

Last reported at 2014-Jul-26 16:32 UTC. Time now 2014-Jul-26 17:13 UTC.
Position N 22°29' E 113°52'.

Length 366 m; draft 13.5 m.

Type: Ship (hazmat cat A). MMSI: 636015506.

Date/timePositionNaut miles runAvg speedWind from/ knotsBaromVisibWave heightAir tempDewpointWater temp
2014-Jul-26 16:32N 22°29' E 113°52'0 0.0
2014-Jul-26 07:07N 22°29' E 113°52'0 0.0
2014-Jul-26 05:07N 22°29' E 113°52'1 0.7
2014-Jul-26 03:33N 22°28' E 113°52'  
2014-Jul-20 13:32N 01°16' E 104°09'1818.2
2014-Jul-20 12:33N 01°12' E 103°52'8 8.2
2014-Jul-20 11:33N 01°16' E 103°45'0 0.3
2014-Jul-20 10:32N 01°17' E 103°45'0 0.0
2014-Jul-20 08:23N 01°17' E 103°45'0 0.0
2014-Jul-20 07:32N 01°17' E 103°45'0 0.0
2014-Jul-20 06:32N 01°17' E 103°45'0 0.0
2014-Jul-20 05:32N 01°17' E 103°45'0 0.0
2014-Jul-20 04:26N 01°17' E 103°45'0 0.0
2014-Jul-20 03:05N 01°17' E 103°45'0 0.0
2014-Jul-20 01:05N 01°17' E 103°45'0 0.0
2014-Jul-20 00:26N 01°17' E 103°45'0 0.0
2014-Jul-19 23:29N 01°17' E 103°45'0 0.0
2014-Jul-19 21:26N 01°17' E 103°45'0 0.0
2014-Jul-19 18:32N 01°17' E 103°45'0 0.0
2014-Jul-19 12:26N 01°17' E 103°45'0 0.0
2014-Jul-19 11:05N 01°17' E 103°45'0 0.0
2014-Jul-19 10:29N 01°17' E 103°45'0 0.0
2014-Jul-19 09:23N 01°17' E 103°45'0 0.0
2014-Jul-19 08:14N 01°17' E 103°45'0 0.0
2014-Jul-19 07:26N 01°17' E 103°45'0 0.0
2014-Jul-19 06:11N 01°17' E 103°45'0 0.0
2014-Jul-19 03:05N 01°17' E 103°45'0 0.1
2014-Jul-19 02:23N 01°17' E 103°45'0 0.1
2014-Jul-19 01:33N 01°17' E 103°45'2 1.7
2014-Jul-19 00:33N 01°15' E 103°45'3 3.1
2014-Jul-18 23:32N 01°14' E 103°42'8 6.2
2014-Jul-18 22:13N 01°11' E 103°34'  

Dump ship's entire track history